Total_Precipitation_Accumulation
3.34 3.30 3.12 3.01 2.79 2.83 3.17 3.43 3.28 3.27 3.13 2.91 2.60 2.39 2.27 2.18 2.11 2.29 2.45 2.53 2.49 2.51 2.76 2.93 2.80 2.57 2.47 2.29 2.11 1.87 1.75 1.74 1.59 1.33 1.21 1.14 1.07 1.06 1.12 1.16 1.15 1.06 1.06
3.71 3.82 3.60 3.42 3.01 2.86 2.92 3.22 3.28 3.53 3.44 3.21 2.60 2.45 2.41 2.38 2.41 2.38 2.53 3.02 3.03 2.62 2.68 3.02 3.23 3.23 3.06 2.84 2.59 2.33 2.14 2.01 1.74 1.45 1.34 1.27 1.15 1.11 1.24 1.33 1.35 1.18 1.06
3.83 3.80 3.57 3.17 2.83 2.79 3.02 3.04 3.04 3.33 3.19 3.07 2.94 2.91 2.83 2.69 2.57 2.54 2.62 3.10 3.07 2.69 2.56 2.67 3.05 3.36 3.43 3.49 3.34 3.20 2.89 2.51 2.13 1.75 1.50 1.32 1.22 1.15 1.18 1.34 1.45 1.36 1.18
3.30 3.38 3.09 2.74 2.74 2.86 3.03 3.23 3.13 3.24 3.28 3.36 3.45 3.37 3.15 2.98 2.55 2.36 2.25 2.38 2.65 2.36 2.52 2.77 2.91 3.02 3.40 3.86 4.05 4.22 3.84 3.13 2.53 2.07 1.74 1.49 1.32 1.18 1.10 1.19 1.37 1.40 1.25
2.58 2.80 2.79 2.75 2.66 2.81 2.88 2.69 3.08 3.37 3.41 3.44 3.17 3.24 2.85 2.73 2.50 2.18 2.11 2.07 2.24 2.38 2.43 2.48 2.66 2.72 3.16 3.88 4.48 4.96 4.80 4.07 3.27 2.72 2.38 2.01 1.74 1.43 1.25 1.21 1.26 1.31 1.21
2.39 2.69 2.70 2.67 2.65 2.80 2.90 3.01 3.31 3.46 3.16 3.11 2.79 2.72 2.46 2.13 2.14 2.09 1.92 2.00 2.13 2.03 2.20 2.36 2.70 2.49 2.92 3.48 4.19 4.95 5.53 5.26 4.32 3.59 3.28 2.99 2.69 2.21 1.71 1.42 1.31 1.31 1.24
2.57 2.83 2.71 2.80 2.62 2.68 2.66 2.74 3.03 3.17 2.81 2.88 3.35 2.96 2.35 1.95 2.00 1.90 1.92 2.00 1.98 2.00 2.22 2.54 2.79 2.87 2.85 2.78 3.07 3.90 5.00 5.58 5.33 4.61 4.18 3.85 3.51 2.97 2.33 1.90 1.64 1.49 1.37
2.54 2.59 2.74 2.58 2.50 2.63 2.61 2.65 2.93 2.91 2.60 2.79 3.28 3.45 2.94 2.56 2.23 1.81 1.84 1.89 1.94 2.15 2.23 2.27 2.73 3.06 3.00 3.28 2.90 2.94 3.83 4.84 5.46 5.40 5.01 4.38 3.88 3.35 2.83 2.50 2.15 1.88 1.64
2.28 2.35 2.32 2.36 2.47 2.21 2.39 2.61 2.77 2.84 2.76 2.67 2.89 3.39 3.22 2.89 2.53 2.11 1.95 2.05 2.22 2.37 2.41 2.54 2.60 2.83 3.03 3.51 3.43 3.19 3.21 3.58 4.59 5.55 5.70 5.04 4.11 3.46 3.22 3.06 2.89 2.44 2.05
2.05 2.08 2.09 2.28 2.37 2.28 2.54 2.24 2.38 2.66 2.88 2.68 2.68 2.70 2.77 3.01 3.01 2.61 2.26 2.13 2.21 2.34 2.43 2.41 2.46 2.71 2.93 3.27 3.61 3.33 3.01 2.83 3.27 4.33 5.23 5.29 4.60 3.69 3.22 3.29 3.68 3.45 2.83
1.95 1.80 1.93 2.15 2.29 2.33 2.41 2.33 2.43 2.43 2.49 2.53 2.59 2.59 2.73 2.97 2.81 2.72 2.57 2.36 2.25 2.10 2.17 2.29 2.48 2.70 2.79 3.03 3.44 3.20 3.04 2.66 2.56 2.93 3.67 4.26 4.42 4.12 3.70 3.66 4.21 4.58 4.36
2.02 1.83 1.87 2.12 2.20 2.28 2.33 2.36 2.32 2.25 2.33 2.42 2.46 2.50 2.70 2.74 2.71 2.78 2.61 2.44 2.29 2.01 1.98 2.08 2.28 2.40 2.50 2.64 2.49 2.49 2.44 2.47 2.38 2.26 2.40 2.79 3.34 3.76 3.86 4.16 4.68 5.19 5.50
1.95 1.93 1.89 2.20 2.33 2.31 2.25 2.35 2.33 2.30 2.41 2.49 2.50 2.49 2.54 2.52 2.58 2.78 2.80 2.52 2.33 2.10 2.20 2.15 2.09 2.22 2.22 2.52 2.44 2.24 2.09 2.19 2.06 1.90 1.85 2.00 2.33 2.82 3.26 3.64 4.05 4.59 5.10
1.79 2.04 2.15 2.17 2.18 2.21 2.19 2.46 2.30 2.32 2.41 2.43 2.31 2.68 2.64 2.48 2.73 2.98 3.14 3.21 2.85 2.58 2.56 2.32 2.10 2.09 2.11 2.22 2.29 2.27 2.07 1.97 1.74 1.65 1.68 1.75 1.85 2.10 2.42 2.78 3.09 3.35 3.63
1.77 1.98 2.13 2.22 2.16 2.16 2.32 2.56 2.50 2.52 2.62 2.51 2.51 2.80 2.72 2.58 2.67 2.82 3.13 3.44 3.47 3.15 2.99 2.73 2.43 2.26 2.17 2.17 2.32 2.11 2.05 2.10 1.80 1.61 1.63 1.65 1.73 1.83 1.86 1.90 2.04 2.16 2.34
1.94 2.03 2.03 2.06 2.03 2.02 2.18 2.56 2.56 2.57 2.77 2.72 2.69 2.75 2.74 2.62 2.72 2.73 2.88 3.25 3.57 3.57 3.19 2.54 2.45 2.34 2.23 2.03 2.18 1.94 1.93 2.09 1.83 1.64 1.54 1.44 1.43 1.47 1.51 1.59 1.72 1.81 1.91
2.03 2.04 2.04 2.04 1.96 1.86 1.99 2.22 2.32 2.52 2.66 2.72 2.69 2.74 2.74 2.87 2.91 2.78 2.86 3.02 3.29 3.47 3.06 2.50 2.58 2.73 2.67 2.44 2.23 2.01 1.88 1.83 1.80 1.78 1.50 1.41 1.40 1.36 1.41 1.49 1.56 1.64 1.74
2.07 2.11 2.11 2.06 1.89 1.89 2.00 2.10 2.23 2.44 2.57 2.64 2.76 2.87 2.65 2.79 2.91 2.84 2.86 2.87 3.03 3.32 3.14 2.93 2.88 2.96 2.89 2.63 2.40 2.13 1.78 1.59 1.64 1.88 1.58 1.36 1.30 1.33 1.38 1.41 1.40 1.42 1.42
2.10 2.21 2.22 2.13 2.06 2.09 2.17 2.23 2.32 2.47 2.53 2.58 2.68 2.69 2.64 2.80 2.69 2.78 2.89 2.83 2.85 2.88 3.00 2.89 2.73 2.81 2.75 2.57 2.40 2.09 1.83 1.79 1.56 1.60 1.54 1.38 1.30 1.30 1.33 1.29 1.25 1.26 1.27
2.04 2.04 2.01 2.10 2.16 2.20 2.24 2.27 2.27 2.30 2.34 2.40 2.36 2.27 2.24 2.30 2.35 2.56 2.55 2.55 2.65 2.75 2.82 2.71 2.63 2.69 2.70 2.72 2.56 2.24 2.09 1.94 1.72 1.45 1.48 1.45 1.41 1.36 1.32 1.25 1.16 1.16 1.21
1.83 2.00 2.02 2.12 2.20 2.16 2.04 2.14 2.17 2.12 2.28 2.20 2.04 2.00 2.00 2.10 2.14 2.22 2.10 2.21 2.42 2.49 2.54 2.60 2.63 2.79 2.78 2.90 2.74 2.43 2.31 2.21 1.92 1.64 1.59 1.48 1.43 1.37 1.37 1.37 1.32 1.23 1.17
1.91 1.98 2.01 2.14 2.22 2.06 2.12 2.17 2.21 2.19 2.21 2.13 2.08 2.02 1.89 1.92 1.94 1.95 1.92 1.95 2.09 2.20 2.38 2.54 2.57 2.67 2.73 2.72 2.71 2.56 2.44 2.26 1.98 1.79 1.92 1.86 1.62 1.58 1.68 1.61 1.51 1.27 1.12
2.02 2.09 2.20 2.27 2.22 2.33 2.29 2.12 2.16 2.11 2.12 2.15 2.18 2.15 1.84 1.66 1.84 1.78 1.89 1.84 1.77 1.81 1.91 2.07 2.16 2.28 2.51 2.64 2.76 2.66 2.64 2.49 2.18 1.93 1.89 1.73 1.61 1.62 1.78 1.89 1.63 1.23 1.14
2.23 2.31 2.35 2.28 2.26 2.36 2.36 2.02 1.95 1.87 1.94 2.02 2.06 2.10 2.10 2.00 1.99 2.02 2.03 1.97 1.84 1.78 1.86 1.84 1.85 2.07 2.44 2.76 2.82 2.76 2.81 2.67 2.34 2.01 1.91 1.78 1.60 1.55 1.40 1.41 1.46 1.20 1.03
2.42 2.49 2.55 2.54 2.42 2.47 2.35 1.98 1.84 1.72 1.82 1.89 1.94 1.93 1.95 1.87 1.92 1.83 1.78 1.75 1.72 1.65 1.65 1.66 1.65 1.77 2.07 2.47 2.68 2.71 2.79 2.70 2.44 2.12 1.94 1.87 1.64 1.57 1.44 1.31 1.30 1.33 1.14
2.56 2.61 2.52 2.40 2.28 2.30 2.29 1.95 1.75 1.63 1.75 1.85 1.93 1.89 1.87 1.78 1.76 1.60 1.49 1.51 1.47 1.49 1.60 1.59 1.53 1.54 1.66 1.97 2.33 2.32 2.39 2.52 2.28 2.03 1.70 1.64 1.57 1.54 1.51 1.31 1.19 1.19 1.16